When you browse on this site, cookies collect data to enhance your experience and personalize the content and advertising you see.
Visit our Privacy Policy to learn more. By continuing to use the site, you agree to this use of cookies and data.

Hourly Weather Cudnochy

Today, 15 August, Saturday

Time Temperature Precipitation Wind Pressure Humidity
00:00 +17°C° 0 mm 2 mps 751 mmHg 79%
01:00 +16°C° 0 mm 2 mps 751 mmHg 79%
02:00 +16°C° 0 mm 2 mps 751 mmHg 80%
03:00 +16°C° 0 mm 2 mps 751 mmHg 80%
04:00 +15°C° 0 mm 2 mps 750 mmHg 81%
05:00 +17°C° 0 mm 2 mps 751 mmHg 78%
06:00 +18°C° 0 mm 2 mps 751 mmHg 75%
07:00 +20°C° 0 mm 2 mps 751 mmHg 69%
08:00 +23°C° 0 mm 2 mps 751 mmHg 64%
09:00 +24°C° 0 mm 2 mps 752 mmHg 58%
10:00 +26°C° 0 mm 2 mps 752 mmHg 52%
11:00 +27°C° 0 mm 2 mps 752 mmHg 50%
12:00 +27°C° 0 mm 2 mps 752 mmHg 47%
13:00 +27°C° 0 mm 1 mps 752 mmHg 46%
14:00 +27°C° 0 mm 1 mps 751 mmHg 46%
15:00 +27°C° 0 mm 1 mps 751 mmHg 47%
16:00 +27°C° 0 mm 1 mps 751 mmHg 48%
17:00 +25°C° 0 mm 1 mps 751 mmHg 52%
18:00 +24°C° 0 mm 1 mps 751 mmHg 57%
19:00 +22°C° 0 mm 1 mps 751 mmHg 62%
20:00 +21°C° 0 mm 1 mps 751 mmHg 64%
21:00 +20°C° 0 mm 1 mps 751 mmHg 66%
22:00 +19°C° 0 mm 1 mps 751 mmHg 68%
23:00 +19°C° 0 mm 1 mps 752 mmHg 70%

Tomorrow, 16 August, Sunday

Time Temperature Precipitation Wind Pressure Humidity
00:00 +18°C° 0 mm 1 mps 752 mmHg 72%
01:00 +18°C° 0 mm 1 mps 752 mmHg 74%
02:00 +16°C° 0 mm 1 mps 752 mmHg 75%
03:00 +16°C° 0 mm 1 mps 752 mmHg 76%
04:00 +16°C° 0 mm 1 mps 752 mmHg 77%
05:00 +18°C° 0 mm 1 mps 752 mmHg 72%
06:00 +20°C° 0 mm 1 mps 752 mmHg 68%
07:00 +22°C° 0 mm 1 mps 752 mmHg 63%
08:00 +23°C° 0 mm 1 mps 752 mmHg 58%
09:00 +25°C° 0 mm 1 mps 752 mmHg 53%
10:00 +27°C° 0 mm 1 mps 752 mmHg 48%
11:00 +28°C° 0 mm 1 mps 752 mmHg 46%
12:00 +28°C° 0 mm 1 mps 752 mmHg 44%
13:00 +29°C° 0 mm 1 mps 752 mmHg 42%
14:00 +29°C° 0 mm 1 mps 752 mmHg 43%
15:00 +28°C° 0 mm 1 mps 751 mmHg 44%
16:00 +28°C° 0 mm 1 mps 751 mmHg 45%
17:00 +26°C° 0 mm 1 mps 751 mmHg 52%
18:00 +24°C° 0 mm 1 mps 751 mmHg 59%
19:00 +22°C° 0 mm 1 mps 751 mmHg 66%
20:00 +21°C° 0 mm 1 mps 751 mmHg 68%
21:00 +21°C° 0 mm 1 mps 751 mmHg 69%
22:00 +20°C° 0 mm 1 mps 751 mmHg 70%
23:00 +19°C° 0 mm 1 mps 751 mmHg 72%

Day after tomorrow, 17 August, Monday

Time Temperature Precipitation Wind Pressure Humidity
00:00 +19°C° 0 mm 1 mps 751 mmHg 73%
01:00 +18°C° 0 mm 1 mps 751 mmHg 75%
02:00 +18°C° 0 mm 1 mps 750 mmHg 76%
03:00 +18°C° 0 mm 1 mps 750 mmHg 78%
04:00 +16°C° 0 mm 1 mps 750 mmHg 79%
05:00 +19°C° 0 mm 1 mps 750 mmHg 75%
06:00 +20°C° 0 mm 1 mps 750 mmHg 70%
07:00 +21°C° 0 mm 2 mps 750 mmHg 66%
08:00 +23°C° 0 mm 2 mps 750 mmHg 60%
09:00 +25°C° 0 mm 2 mps 750 mmHg 54%
10:00 +26°C° 0 mm 3 mps 750 mmHg 48%
11:00 +27°C° 0 mm 3 mps 749 mmHg 47%
12:00 +27°C° 0 mm 3 mps 749 mmHg 46%
13:00 +27°C° 0 mm 3 mps 749 mmHg 45%
14:00 +27°C° 0 mm 3 mps 748 mmHg 48%
15:00 +27°C° 0 mm 2 mps 748 mmHg 50%
16:00 +26°C° 0 mm 2 mps 748 mmHg 52%
17:00 +25°C° 0.1 mm 2 mps 747 mmHg 55%
18:00 +24°C° 0.1 mm 2 mps 747 mmHg 58%
19:00 +23°C° 0.1 mm 2 mps 747 mmHg 61%
20:00 +21°C° 0.1 mm 2 mps 747 mmHg 63%
21:00 +20°C° 0.1 mm 2 mps 747 mmHg 65%
22:00 +19°C° 0.1 mm 2 mps 747 mmHg 68%
23:00 +19°C° 0 mm 2 mps 747 mmHg 69%

18 August, Tuesday

Time Temperature Precipitation Wind Pressure Humidity
00:00 +19°C° 0 mm 2 mps 746 mmHg 70%
01:00 +18°C° 0 mm 2 mps 746 mmHg 71%
02:00 +18°C° 0 mm 2 mps 746 mmHg 75%
03:00 +17°C° 0 mm 2 mps 745 mmHg 78%
04:00 +16°C° 0 mm 2 mps 745 mmHg 82%
05:00 +18°C° 0 mm 2 mps 745 mmHg 79%
06:00 +19°C° 0 mm 2 mps 745 mmHg 77%
07:00 +20°C° 0 mm 3 mps 745 mmHg 74%
08:00 +22°C° 0 mm 3 mps 745 mmHg 70%
09:00 +24°C° 0 mm 3 mps 745 mmHg 66%
10:00 +26°C° 0 mm 3 mps 745 mmHg 62%
11:00 +26°C° 0 mm 3 mps 744 mmHg 60%
12:00 +27°C° 0 mm 3 mps 744 mmHg 58%
13:00 +28°C° 0 mm 2 mps 744 mmHg 57%
14:00 +27°C° 0 mm 2 mps 743 mmHg 58%
15:00 +27°C° 0 mm 3 mps 743 mmHg 60%
16:00 +27°C° 0 mm 3 mps 743 mmHg 62%
17:00 +25°C° 0 mm 2 mps 743 mmHg 69%
18:00 +23°C° 0 mm 2 mps 743 mmHg 77%
19:00 +21°C° 0 mm 2 mps 743 mmHg 84%
20:00 +20°C° 0 mm 2 mps 743 mmHg 87%
21:00 +19°C° 0 mm 2 mps 742 mmHg 91%
22:00 +18°C° 0 mm 2 mps 742 mmHg 94%
23:00 +19°C° 0 mm 1 mps 742 mmHg 94%

19 August, Wednesday

Time Temperature Precipitation Wind Pressure Humidity
00:00 +18°C° 0 mm 1 mps 742 mmHg 95%
01:00 +18°C° 0 mm 1 mps 742 mmHg 95%
02:00 +18°C° 0 mm 1 mps 742 mmHg 95%
03:00 +16°C° 0 mm 1 mps 742 mmHg 96%
04:00 +16°C° 0 mm 1 mps 742 mmHg 96%
05:00 +18°C° 0 mm 1 mps 742 mmHg 91%
06:00 +19°C° 0 mm 1 mps 742 mmHg 87%
07:00 +20°C° 0 mm 1 mps 742 mmHg 83%
08:00 +22°C° 0 mm 1 mps 742 mmHg 77%
09:00 +23°C° 0 mm 1 mps 742 mmHg 70%
10:00 +25°C° 0 mm 1 mps 743 mmHg 64%
11:00 +25°C° 0 mm 2 mps 743 mmHg 62%
12:00 +25°C° 0 mm 2 mps 743 mmHg 60%
13:00 +26°C° 0 mm 2 mps 743 mmHg 58%
14:00 +25°C° 0 mm 3 mps 742 mmHg 62%
15:00 +25°C° 0 mm 3 mps 742 mmHg 65%
16:00 +24°C° 0 mm 3 mps 742 mmHg 69%
17:00 +22°C° 0.3 mm 3 mps 742 mmHg 75%
18:00 +20°C° 0.3 mm 3 mps 742 mmHg 82%
19:00 +19°C° 0.3 mm 3 mps 742 mmHg 88%
20:00 +19°C° 0.1 mm 3 mps 742 mmHg 88%
21:00 +18°C° 0.1 mm 3 mps 742 mmHg 88%
22:00 +18°C° 0.1 mm 3 mps 742 mmHg 89%
23:00 +18°C° 0 mm 3 mps 743 mmHg 90%

20 August, Thursday

Time Temperature Precipitation Wind Pressure Humidity
00:00 +18°C° 0 mm 3 mps 743 mmHg 90%
01:00 +17°C° 0 mm 2 mps 743 mmHg 91%
02:00 +17°C° 0 mm 2 mps 743 mmHg 92%
03:00 +17°C° 0 mm 2 mps 743 mmHg 92%
04:00 +17°C° 0 mm 2 mps 743 mmHg 92%
05:00 +18°C° 0 mm 3 mps 743 mmHg 91%
06:00 +18°C° 0 mm 3 mps 744 mmHg 89%
07:00 +19°C° 0 mm 3 mps 744 mmHg 88%
08:00 +20°C° 0.1 mm 3 mps 744 mmHg 81%
09:00 +22°C° 0.1 mm 3 mps 745 mmHg 74%
10:00 +23°C° 0.1 mm 4 mps 745 mmHg 67%
11:00 +25°C° 0.4 mm 4 mps 745 mmHg 66%
12:00 +25°C° 0.4 mm 4 mps 745 mmHg 65%
13:00 +25°C° 0.4 mm 5 mps 745 mmHg 64%
14:00 +25°C° 0.2 mm 4 mps 745 mmHg 63%
15:00 +25°C° 0.2 mm 4 mps 746 mmHg 62%
16:00 +25°C° 0.2 mm 4 mps 746 mmHg 61%
17:00 +24°C° 0 mm 3 mps 746 mmHg 68%
18:00 +21°C° 0 mm 2 mps 746 mmHg 74%
19:00 +20°C° 0 mm 1 mps 747 mmHg 80%
20:00 +20°C° 0 mm 1 mps 747 mmHg 83%
21:00 +19°C° 0 mm 1 mps 747 mmHg 85%
22:00 +16°C° 0 mm 0 mps 748 mmHg 87%
23:00 +18°C° 0 mm 1 mps 748 mmHg 88%
Show more